#timestamp,LO_Frequency,Hit,StdDev 
1653512415.4,286047002.3,N
1653512435.3,286047000.3,N
1653512455.1,286047000.3,N
1653512475.8,286047000.2,N
1653512495.7,286047002.7,N
1653512515.5,286047000.0,N
1653512535.4,286046999.9,N
1653512555.2,286046999.7,N
1653512575.0,286047002.0,N
1653512575.9,286047002.0,N
1653512595.8,286047002.8,N
1653512615.6,286046999.7,N
1653512635.4,286047002.4,N
1653512655.3,286047000.2,N
1653512675.1,286046999.7,N
1653512695.9,286047002.3,N
1653512715.7,286047002.5,N
1653512735.5,286047002.4,N
1653512755.4,286047000.1,N
1653512775.2,286047001.9,N
1653512795.0,286047002.5,N
1653512795.9,286047002.5,N
1653512815.8,286047001.5,N
1653512835.6,286047002.2,N
1653512855.5,286047002.2,N
1653512875.3,286047002.0,N
1653512895.1,286047001.3,N
1653512915.9,286047001.6,N
1653512935.7,286047002.2,N
1653512955.5,286047002.2,N
1653512975.4,286047002.1,N
1653512995.2,286047001.6,N
1653513015.1,286047002.1,N
1653513016.0,286047002.1,N
1653513035.8,286047001.9,N
1653513055.6,286047002.4,N
1653513075.5,286047001.6,N
1653513095.3,286047002.0,N
1653513115.2,286047002.5,Y
1653513135.9,286047000.4,P
1653513155.7,286047000.2,N
1653513175.6,286046999.9,N
1653513195.4,286047000.4,N
1653513215.2,286047001.0,N
1653513235.1,286047000.7,N
1653513236.0,286047000.7,N
1653513255.8,286046998.6,N
1653513275.7,286047001.2,N
1653513295.5,286047001.1,N
1653513315.3,286047000.6,N
1653513335.2,286047001.0,N
1653513355.0,286047000.9,N
1653513355.9,286047000.9,N
1653513375.7,286047000.9,N
1653513395.6,286047001.2,N
1653513415.4,286047000.9,N
1653513435.3,286047000.1,N
1653513455.1,286047002.7,Y
1653513475.8,286047002.7,P
1653513495.7,286046999.8,N
1653513515.5,286047002.8,N
1653513535.4,286047001.5,N
1653513555.2,286047002.0,N
1653513575.0,286047002.1,N
1653513575.9,286047002.1,N
1653513595.8,286047001.5,N
1653513615.6,286047002.1,N
1653513635.4,286047002.2,N
1653513655.3,286047002.7,Y
1653513675.1,286046999.2,P
1653513695.9,286046996.6,N
1653513715.7,286046997.7,N
1653513735.5,286046995.5,N
1653513755.4,286046996.4,N
1653513775.2,286046995.8,N
1653513795.0,286046996.1,N
1653513796.0,286046996.1,N
1653513815.8,286046997.7,N
1653513835.6,286046997.9,N
1653513855.5,286046995.0,N
1653513875.3,286046995.2,N
1653513895.1,286046993.7,Y
1653513915.9,286046996.8,P
1653513935.7,286046997.1,P
1653513955.6,286046997.8,P
1653513975.4,286046997.7,Y
1653513995.2,286046998.5,P
1653514015.1,286046998.3,N
1653514016.0,286046998.3,N
1653514035.8,286047000.8,N
1653514055.6,286047000.9,N
1653514075.5,286046999.9,N
1653514095.3,286047002.7,N
1653514115.2,286047000.0,N
1653514135.9,286047000.3,N
1653514155.7,286046998.1,N
1653514175.6,286047000.5,N
1653514195.4,286047000.3,N
1653514215.2,286046999.9,N
1653514235.1,286047000.3,N
1653514236.0,286047000.3,N
1653514255.8,286047000.4,N
1653514305.7,286047002.7,E
1653514315.6,286047000.9,N
1653514335.4,286047001.2,P
1653514355.3,286046998.1,P
1653514375.1,286046999.2,N
1653514395.9,286046997.0,N
1653514415.7,286046997.4,N
1653514435.5,286046997.5,N
1653514455.4,286046995.4,N
1653514475.2,286046993.7,Y
1653514495.1,286046997.7,P
1653514496.0,286046997.7,P
1653514515.8,286046997.5,P
1653514535.6,286046997.5,Y
1653514555.5,286046998.4,P
1653514575.3,286046998.9,P
1653514595.2,286046996.8,P
1653514615.9,286046997.1,Y
1653514635.7,286046999.3,P
1653514655.6,286047001.2,N
1653514675.4,286047000.9,N
1653514695.2,286047002.7,N
1653514715.1,286047002.2,N
1653514716.0,286047002.2,N
1653514735.8,286047002.2,N
1653514755.7,286046999.9,N
1653514775.5,286047002.8,N
1653514795.3,286047000.7,N
1653514815.2,286046998.5,N
1653514835.0,286046998.6,N
1653514835.9,286046998.6,N
1653514855.7,286047001.2,N
1653514875.6,286047001.2,N
1653514895.4,286046998.2,N
1653514915.3,286046998.4,N
1653514935.1,286046998.4,N
1653514955.8,286046999.4,N
1653514975.7,286047001.2,N
1653514995.5,286047000.9,N
1653515015.3,286047000.9,N
1653515035.2,286047001.0,N
1653515055.0,286047000.7,N
1653515055.9,286047000.7,N
1653515075.8,286047000.5,N
1653515095.6,286046999.7,N
1653515115.4,286047000.5,N
1653515135.3,286047000.7,N
1653515155.1,286047000.1,N
1653515175.9,286047001.6,N
1653515195.7,286047000.5,N
1653515215.5,286047000.1,N
1653515235.4,286046999.8,N
1653515255.2,286047002.8,N
1653515275.0,286047000.1,N
1653515275.9,286047000.1,N
1653515295.8,286047001.2,N
1653515315.6,286046998.6,N
1653515335.5,286047000.3,N
1653515355.3,286047000.2,N
1653515375.1,286047000.4,N
1653515395.9,286047000.1,N
1653515415.7,286046999.8,N
1653515435.5,286047000.2,N
1653515455.4,286046999.7,N
1653515475.2,286046999.9,N
1653515495.1,286047001.0,N
1653515496.0,286047001.0,N
1653515515.8,286047000.3,N
1653515535.6,286047000.4,N
1653515555.5,286047000.5,N
1653515575.3,286046999.8,N
1653515595.2,286047000.9,N
1653515615.9,286047001.0,N
1653515635.7,286047000.5,N
1653515655.6,286047001.1,N
1653515675.4,286046998.6,N
1653515695.2,286047001.0,N
1653515715.1,286047000.5,N
1653515716.0,286047000.5,N
1653515735.8,286047000.5,N
1653515755.7,286047002.8,Y
1653515775.5,286047001.0,P
1653515795.3,286046999.9,N
1653515815.2,286047001.1,N
1653515835.0,286046998.7,N
1653515835.9,286046998.7,N
1653515855.8,286046999.6,N
1653515875.6,286046997.6,N
1653515895.4,286046996.8,N
1653515915.3,286046997.0,N
1653515935.1,286046996.6,N
1653515955.8,286046999.1,N
1653515975.7,286046999.2,N
1653515995.5,286046998.0,N
